Rifle, CO

5:06 PM MST on December 04, 2016 (GMT -0700)
Garfield County Regional

Weather History for KRIL - March, 2013

Change the Weather History Date:

Sunday, March 3, 2013

  Actual Average Record
Temperature  
Mean Temperature 40 °F 36 °F  
Max Temperature 50 °F 49 °F 67 °F (1921)
Min Temperature 29 °F 23 °F 0 °F (2002)
Degree Days  
Heating Degree Days 25 29  
Month to date heating degree days 86 88  
Since 1 July heating degree days 5140 5085  
Cooling Degree Days 0 0  
Month to date cooling degree days 0 0  
Year to date cooling degree days 0 0  
Moisture  
Dew Point 29 °F    
Average Humidity 67    
Maximum Humidity 92    
Minimum Humidity 42    
Precipitation  
Precipitation 0.06 in 0.03 in 0.69 in (1978)
Month to date precipitation 0.06 0.09  
Year to date precipitation 0.83 1.66  
Sea Level Pressure  
Sea Level Pressure 29.96 in    
Wind  
Wind Speed 4 mph (South)    
Max Wind Speed 23 mph    
Max Gust Speed 32 mph    
Visibility 10 miles    
Events Rain    
T = Trace of Precipitation, MM = Missing Value Source: NWS Daily Summary

Daily Weather History Graph

Daily Weather History Graph

Search for Another Location

Airport or City:

Trip Planner

Search our weather history database for the weather conditions in past years. The results will help you decide how hot, cold, wet, or windy it might be!

Date:

Astronomy

Mar. 03, 2013 Rise Set
Actual Time 6:40 AM MST 6:05 PM MST
Civil Twilight 6:13 AM MST 6:32 PM MST
Nautical Twilight 5:42 AM MST 7:03 PM MST
Astronomical Twilight 5:11 AM MST 7:34 PM MST
Moon No Moon Rise 9:59 AM MST (3/3)
Length of Visible Light 12h 19m
Length of Day
11h 25m
Waning Gibbous, 63% of the Moon is Illuminated
Mar 3
Waning Gibbous
Mar 4
Last Quarter
Mar 11
New
Mar 19
First Quarter
Mar 27
Full

Hourly Weather History & Observations

Time (MST) Temp. Windchill Dew Point Humidity Pressure Visibility Wind Dir Wind Speed Gust Speed Precip Events Conditions
12:53 AM 30.0 °F 25.2 °F 25.0 °F 82% 30.18 in 10.0 mi East 4.6 mph - N/A   Clear
1:53 AM 30.0 °F 26.5 °F 25.0 °F 82% 30.16 in 10.0 mi WSW 3.5 mph - N/A   Clear
2:53 AM 30.9 °F 26.2 °F 26.1 °F 82% 30.11 in 10.0 mi Variable 4.6 mph - N/A   Clear
3:53 AM 30.0 °F - 25.0 °F 82% 30.08 in 10.0 mi Calm Calm - N/A   Clear
5:53 AM 30.0 °F - 26.1 °F 85% 30.07 in 10.0 mi Calm Calm - N/A   Clear
6:53 AM 30.0 °F - 25.0 °F 82% 30.08 in 10.0 mi Calm Calm - N/A   Clear
7:53 AM 30.9 °F - 26.1 °F 82% 30.08 in 10.0 mi Calm Calm - N/A   Clear
8:53 AM 32.0 °F 26.4 °F 26.1 °F 79% 30.07 in 10.0 mi WNW 5.8 mph - N/A   Clear
9:53 AM 34.0 °F - 26.1 °F 73% 30.06 in 10.0 mi Calm Calm - N/A   Scattered Clouds
10:53 AM 37.0 °F - 27.0 °F 67% 30.02 in 10.0 mi Calm Calm - N/A   Mostly Cloudy
11:53 AM 37.9 °F - 26.1 °F 62% 29.99 in 10.0 mi Calm Calm - N/A   Mostly Cloudy
12:53 PM 41.0 °F - 26.1 °F 55% 29.93 in 10.0 mi Calm Calm - N/A   Overcast
1:53 PM 42.1 °F 39.2 °F 28.9 °F 60% 29.90 in 10.0 mi ESE 4.6 mph - N/A   Overcast
2:53 PM 46.0 °F 43.9 °F 28.0 °F 50% 29.86 in 10.0 mi East 4.6 mph - N/A   Mostly Cloudy
3:53 PM 46.9 °F - 27.0 °F 46% 29.84 in 10.0 mi Variable 5.8 mph - N/A   Overcast
4:30 PM 50.0 °F - 26.6 °F 40% 29.86 in 10.0 mi SW 16.1 mph 20.7 mph N/A   Overcast
4:53 PM 48.9 °F - 27.0 °F 43% 29.84 in 10.0 mi SW 17.3 mph 28.8 mph N/A   Overcast
5:53 PM 46.9 °F - 28.0 °F 48% 29.84 in 10.0 mi South 8.1 mph - N/A   Overcast
6:53 PM 45.0 °F 40.1 °F 30.0 °F 56% 29.86 in 10.0 mi South 9.2 mph - N/A   Overcast
7:53 PM 45.0 °F 37.4 °F 32.0 °F 60% 29.87 in 10.0 mi SW 18.4 mph - 0.00 in   Overcast
8:53 PM 43.0 °F 40.3 °F 33.1 °F 68% 29.88 in 10.0 mi Variable 4.6 mph - 0.00 in Rain Light Rain
9:53 PM 39.9 °F 35.1 °F 35.1 °F 83% 29.87 in 9.0 mi SSW 6.9 mph - 0.03 in Rain Light Rain
10:28 PM 37.4 °F - 35.6 °F 93% 29.87 in 10.0 mi Calm Calm - 0.02 in Rain Light Rain
10:53 PM 37.9 °F 34.4 °F 35.1 °F 89% 29.86 in 10.0 mi East 4.6 mph - 0.03 in Rain Light Rain
11:30 PM 37.4 °F 34.9 °F 33.8 °F 87% 29.86 in 10.0 mi SSE 3.5 mph - 0.00 in   Overcast
11:53 PM 36.0 °F - 34.0 °F 93% 29.85 in 10.0 mi Calm Calm - 0.00 in   Overcast